Home > Weather > Aurillac > Past weeks

Flag for France Past Weather in Aurillac, Auvergne, France — Yesterday and Last 2 Weeks

Now
80 °F

Pleasantly warm.


Feels Like: 80 °F
Forecast: 59 / 89 °F
Wind: 10 mph from Southeast

Location: Aurillac

Current Time: Aug 25, 2016 at 11:59:27 AM

Latest Report: Aug 25, 2016 at 11:00 AM


Visibility: 12 mi

Pressure: 30.01 "Hg (27.95 "Hg at 627m altitude)

Humidity: 35%

Dew Point: 50 °F

Location of AurillacLocation

Past Weather in Aurillac — Graph

°F

Aurillac Temperature Yesterday

Maximum temperature yesterday: 90 °F (at 6:00 PM)
Minimum temperature yesterday: 58 °F (at 5:00 AM)
Average temperature yesterday: 74 °F

High & Low Weather Summary for the Past Weeks

 TemperatureHumidityPressure
High90 °F (Aug 24, 6:00 PM)98% (Aug 20, 9:00 AM)30.39 "Hg (Aug 20, 9:00 AM)
Low41 °F (Aug 11, 7:00 AM)21% (Aug 15, 5:00 PM)29.81 "Hg (Aug 17, 6:00 PM)
Average67 °F61%30.10 "Hg
* Reported Aug 10 10:00 AM — Aug 25 10:00 AM, Aurillac, Weather by CustomWeather, © 2016

Note: Actual official high and low records may vary slightly from our data, if they occured in-between our weather recording intervals... More about our weather records

Advertising

Aurillac Weather History for the Previous 24 Hours

Scroll right to see more
 ConditionsComfort  
Time TempWeatherWind HumidityBarometerVisibility
10:00 AM
Thu, Aug 25
77 °FPleasantly warm.8 mph38%30.02 "Hg34 mi
9:00 AM71 °FMild.8 mph45%30.04 "Hg34 mi
8:00 AM65 °FMild.8 mph53%30.07 "Hg25 mi
7:00 AM63 °FMild.9 mph55%30.07 "Hg37 mi
6:00 AM63 °FMild.9 mph59%30.06 "Hg37 mi
5:00 AM64 °FMild.8 mph57%30.06 "Hg37 mi
3:00 AM62 °FCool.9 mph68%30.08 "Hg37 mi
2:00 AM63 °FMild.7 mph68%30.09 "Hg37 mi
1:00 AM63 °FMild.5 mph70%30.09 "Hg37 mi
12:00 AM66 °FMild.7 mph64%30.07 "Hg37 mi
11:00 PM
Wed, Aug 24
69 °FMild.6 mph59%30.06 "Hg37 mi
10:00 PM72 °FMild.5 mph53%30.04 "Hg37 mi
9:00 PM78 °FWarm.3 mph41%30.01 "Hg37 mi
8:00 PM85 °FPleasantly warm.3 mph32%29.98 "Hg37 mi
7:00 PM89 °FHot.6 mph26%29.96 "Hg37 mi
6:00 PM90 °FHot.7 mph24%29.97 "Hg22 mi
5:00 PM90 °FHot.6 mph24%29.97 "Hg12 mi
4:00 PM90 °FHot.8 mph24%29.98 "Hg12 mi
3:00 PM88 °FHot.9 mph26%30.01 "Hg37 mi
2:00 PM86 °FPleasantly warm.9 mph27%30.03 "Hg12 mi
1:00 PM84 °FPleasantly warm.9 mph29%30.05 "Hg12 mi
12:00 PM82 °FPleasantly warm.8 mph29%30.07 "Hg12 mi
11:00 AM81 °FPleasantly warm.9 mph30%30.09 "Hg12 mi
Weather by CustomWeather, © 2016

See weather overviewHow to use our weather pages